Regional Weather Roundup
Issued by NWS

Home | Current Version | Previous Version | Text Only | Print | Product List | Glossary Off
Versions: 1 2 3 4 5 6 7 8 9 10 11 12 13 14 15 16 17 18 19 20 21 22 23 24 25 26 27 28 29 30 31 32 33 34 35 36 37 38 39 40 41 42 43 44 45 46 47 48 49 50

000
ASUS43 KLSX 100607
RWRMO

WEATHER SUMMARY FOR MISSOURI
NATIONAL WEATHER SERVICE SPRINGFIELD MO
1200 AM CST WED FEB 10 2016

NOTE: "FAIR" INDICATES FEW OR NO CLOUDS BELOW 12,000 FEET WITH NO
       SIGNIFICANT WEATHER AND/OR OBSTRUCTIONS TO VISIBILITY.
       CURRENT SKY AND/OR WEATHER CONDITIONS ARE NOT AVAILABLE FOR
       CHILLICOTHE AND FARMINGTON.

MOZ001>031-035>038-043-044-053-054-100700-
...NORTHERN AND WESTERN MISSOURI...

CITY           SKY/WX    TMP DP  RH WIND       PRES   REMARKS
KANSAS CTY INT CLEAR     19  10  68 W8        30.24S WCI   9
6HR MIN TEMP:  19; 6HR MAX TEMP:  24;

KANSAS C DTWN  CLEAR     22  10  60 W5        30.26F WCI  16
6HR MIN TEMP:  22; 6HR MAX TEMP:  27;

LEE`S SUMMIT   CLEAR     21   9  59 NW8       30.24F WCI  11
6HR MIN TEMP:  21; 6HR MAX TEMP:  25;

ST JOSEPH      CLEAR     20  10  65 W5        30.26S WCI  13
6HR MIN TEMP:  16; 6HR MAX TEMP:  25;

CHILLICOTHE      N/A     20  11  68 NW6       30.23S WCI  12
6HR MIN TEMP:  20; 6HR MAX TEMP:  24;

KIRKSVILLE     CLEAR     15   6  67 NW10      30.17S WCI   2
6HR MIN TEMP:  15; 6HR MAX TEMP:  20; 6HR PCP: TRACE;


$$
MOZ066>068-077>081-088>096-101>105-100700-
...SOUTHWEST MISSOURI...

CITY           SKY/WX    TMP DP  RH WIND       PRES   REMARKS
SPRINGFIELD    CLEAR     22   5  48 NW13      30.22S WCI  10
6HR MIN TEMP:  22; 6HR MAX TEMP:  29;

JOPLIN         CLEAR     20   7  57 NW7       30.30S WCI  11
6HR MIN TEMP:  20; 6HR MAX TEMP:  30;


$$
MOZ032>034-039>042-045>050-055>058-069>072-100700-
...CENTRAL MISSOURI...

CITY           SKY/WX    TMP DP  RH WIND       PRES   REMARKS
COLUMBIA       MOCLDY    18   6  59 NW12      30.19S WCI   5
6HR MIN TEMP:  18; 6HR MAX TEMP:  24;

JEFFERSON CITY MOCLDY    20   5  52 NW7       30.23R WCI  11
6HR MIN TEMP:  19; 6HR MAX TEMP:  25;

ROLLA          CLEAR     18   4  54 NW21G30   30.14R WCI   1
6HR MIN TEMP:  18; 6HR MAX TEMP:  23;

SEDALIA        CLEAR     20   8  60 W8        30.23F WCI  10
6HR MIN TEMP:  19; 6HR MAX TEMP:  25;

WHITEMAN AFB   CLEAR     21   9  60 NW9       30.21F WCI  10
WARRENSBURG    PTCLDY    23  10  58 W9        30.24S WCI  13
OSAGE BEACH    CLEAR     21   3  45 W7        30.22R WCI  13

$$
MOZ051-052-059>065-100700-
...EAST CENTRAL MISSOURI...

CITY           SKY/WX    TMP DP  RH WIND       PRES   REMARKS
ST LOUIS INTL  FLURRIES  20   7  57 NW13      30.13S WCI   7
6HR MIN TEMP:  20; 6HR MAX TEMP:  26; 6HR PCP: TRACE;

SPIRIT OF STL  CLEAR     19   6  57 NW14      30.15R WCI   6
6HR MIN TEMP:  19; 6HR MAX TEMP:  26; 6HR PCP: TRACE;

ST CHARLES     PTCLDY    17   7  64 NW20      30.15R WCI   1
6HR MIN TEMP:  17; 6HR MAX TEMP:  24;


$$
MOZ072>076-082>087-097>100-106>115-100700-
...SOUTH CENTRAL AND SOUTHEAST MISSOURI...

CITY           SKY/WX    TMP DP  RH WIND       PRES   REMARKS
CAPE GIRARDEAU PTCLDY    22  10  60 NW12      30.13S WCI  10
6HR MIN TEMP:  17; 6HR MAX TEMP:  27;

FARMINGTON     CLEAR     19   7  59 NW9       30.11S WCI   8
6HR MIN TEMP:  19; 6HR MAX TEMP:  25;

POPLAR BLUFF   CLEAR     24   8  50 NW10      30.16S WCI  14
6HR MIN TEMP:  24; 6HR MAX TEMP:  29;

WEST PLAINS    CLEAR     22   2  42 NW13G24   30.16R WCI  10
6HR MIN TEMP:  22; 6HR MAX TEMP:  29;


$$


USA.gov is the U.S. government's official web portal to all federal, state and local government web resources and services.